[[{"header":{"parameterUnit":"m.s-1","parameterCategory":1,"la1":30.2991,"la2":30.254,"lo1":-89.0895,"lo2":-89.0444,"dy":0.0017,"dx":0.0017,"nx":28,"ny":28,"refTime":"2026-02-14T03:00:00:Z","depth":0,"parameterNumber":2,"parameterNumberName":"U-component_of_WINDS"},"data":[0,0,0,0,0,0,0,0,0,0,0,0,0,0,0,0,0,0,0,0,0,0,0,0,0,0,0,0,0,0,0,0,0,0,0,0,0,0,0,0,0,0,0,0,0,0,0,0,0,0,0,0,0,0,0,0,0,0,-5.5059,-5.506,0,-5.5123,-5.5123,-5.5124,-5.5099,-5.5098,-5.5096,-5.5095,-5.5156,-5.5159,-5.5162,0,0,0,0,0,0,0,0,0,0,0,0,0,-5.4914,-5.4917,-5.5059,-5.506,-5.5061,-5.5122,-5.5123,-5.5124,-5.5099,-5.5098,-5.5096,-5.5094,-5.5155,-5.5159,-5.5162,0,0,0,0,0,0,0,0,0,0,0,0,0,-5.4977,-5.4918,-5.5059,-5.5056,-5.5056,-5.5122,-5.5123,-5.5124,-5.51,-5.5098,-5.5095,-5.5093,-5.5154,-5.5158,-5.5163,-5.5234,0,0,-5.5177,-5.5179,0,0,0,0,0,0,0,0,-5.4973,-5.4982,-5.5055,-5.5056,-5.5057,-5.5101,-5.5095,-5.5161,-5.51,-5.5083,-5.5095,-5.5092,-5.5139,-5.5145,-5.5161,-5.5237,-5.524,-5.5177,-5.518,-5.5182,-5.5183,0,0,0,0,0,0,0,-5.4969,-5.4979,-5.5084,-5.5057,-5.5057,-5.505,-5.5057,-5.5107,-5.5123,-5.5084,-5.5083,-5.5091,-5.5139,-5.5157,-5.5163,-5.5241,-5.5177,-5.5181,-5.5184,-5.5185,-5.5378,-5.5381,0,0,0,0,0,0,-5.4965,-5.4976,-5.5082,-5.5086,-5.5009,-5.5055,-5.5062,-5.5089,-5.5122,-5.5125,-5.5093,-5.509,-5.5151,-5.5157,-5.5165,-5.525,-5.5182,-5.5186,-5.5188,-5.5376,-5.5379,-5.5381,0,0,0,0,0,0,-5.4962,-5.4975,-5.5079,-5.5031,-5.5043,-5.506,-5.509,-5.5091,-5.5109,-5.5128,-5.5131,-5.5108,-5.5149,-5.5158,-5.5217,-5.5251,-5.5188,-5.5192,-5.5373,-5.5377,-5.538,-5.5421,0,0,0,0,0,0,-5.4958,-5.4974,-5.5001,-5.5031,-5.5046,-5.5132,-5.5092,-5.5094,-5.5117,-5.5114,-5.5144,-5.5146,-5.5148,-5.5211,-5.5222,-5.5257,-5.5195,-5.537,-5.5375,-5.5379,-5.5416,-5.5425,-5.5433,0,0,0,0,0,-5.4953,-5.501,-5.5003,-5.5016,-5.5081,-5.5134,-5.5142,-5.5144,-5.512,-5.5148,-5.516,-5.5145,-5.5247,-5.5217,-5.5229,-5.5266,-5.5368,-5.5373,-5.5379,-5.5413,-5.5424,-5.5433,0,0,0,0,0,0,-5.4981,-5.5013,-5.5006,-5.5075,-5.5102,-5.513,-5.5164,-5.5156,-5.5189,-5.5184,-5.5184,-5.5191,-5.5252,-5.5265,-5.5231,-5.5337,-5.5303,-5.5312,-5.5325,-5.5336,-5.5344,-5.5338,-5.5199,0,0,0,0,0,-5.4996,-5.5037,-5.5063,-5.5121,-5.5135,-5.5148,-5.517,-5.517,-5.5197,-5.5208,-5.5225,-5.5251,-5.5289,-5.5314,-5.5349,-5.542,-5.5425,-5.5451,-5.5459,-5.5466,-5.5472,-5.5509,-5.552,-5.5399,-5.5399,-5.5399,0,0,-5.5026,-5.5049,-5.5074,-5.5127,-5.5148,-5.5189,-5.5157,-5.5202,-5.5232,-5.5215,-5.5271,-5.5285,-5.5314,-5.5379,-5.5408,-5.5392,-5.5507,-5.5473,-5.5478,-5.548,-5.5516,-5.5527,-5.5537,-5.5403,-5.5402,-5.5402,0,0,-5.5101,-5.5123,-5.5173,-5.5196,-5.5229,-5.5237,-5.5249,-5.5279,-5.5288,-5.5345,-5.5332,-5.5369,-5.5434,-5.5455,-5.5474,-5.556,-5.5547,-5.5572,-5.5614,-5.565,-5.566,-5.5668,-5.5697,-5.5707,-5.5579,-5.5579,-5.5579,0,-5.5133,-5.5196,-5.52,-5.5247,-5.527,-5.5258,-5.5308,-5.5329,-5.5372,-5.5387,-5.537,-5.5452,-5.5471,-5.554,-5.5561,-5.5578,-5.559,-5.5567,-5.5658,-5.5667,-5.5675,-5.5702,-5.5713,-5.5581,-5.5581,-5.5581,-5.5581,0,-5.5233,-5.5277,-5.5314,-5.5357,-5.5384,-5.5432,-5.5443,-5.5471,-5.5469,-5.5479,-5.5537,-5.556,-5.56,-5.5617,-5.5615,-5.5686,-5.5675,-5.5658,-5.5624,-5.5689,-5.5714,-5.5725,-5.5585,-5.5584,-5.5584,-5.5583,0,0,-5.5325,-5.5371,-5.5384,-5.5403,-5.544,-5.5473,-5.5521,-5.5562,-5.5585,-5.5615,-5.5654,-5.5711,-5.5696,-5.5718,-5.5718,-5.5751,-5.5815,-5.573,-5.573,-5.5743,-5.5893,-5.5904,-5.5916,-5.5808,-5.5811,-5.5812,-5.589,0,-5.5401,-5.5485,-5.5492,-5.5567,-5.5607,-5.5598,-5.564,-5.5666,-5.5678,-5.5713,-5.5725,-5.5764,-5.5743,-5.5756,-5.5788,-5.5801,-5.5845,-5.5796,-5.5842,-5.5844,-5.5832,-5.5929,-5.5941,-5.6013,-5.59,-5.5902,-5.5903,0,-5.55,-5.5535,-5.5615,-5.5647,-5.5663,-5.5701,-5.5739,-5.5773,-5.5803,-5.5809,-5.5835,-5.5832,-5.588,-5.5847,-5.5912,-5.5879,-5.5899,-5.5909,-5.5911,-5.5913,-5.5875,-5.5931,-5.6036,-5.6046,-5.5919,-5.5918,-5.5917,0,-5.5556,-5.5623,-5.568,-5.5697,-5.5735,-5.5762,-5.5779,-5.5807,-5.5831,-5.5865,-5.588,-5.5918,-5.5939,-5.5968,-5.5975,-5.5951,-5.604,-5.6008,-5.6044,-5.6044,-5.6061,-5.6059,-5.6167,-5.6079,-5.6079,-5.6078,-5.6078,0,-5.5638,-5.5687,-5.5705,-5.574,-5.5794,-5.5801,-5.5855,-5.587,-5.5896,-5.5932,-5.5927,-5.5961,-5.597,-5.6005,-5.6011,-5.6064,-5.6074,-5.6079,-5.6079,-5.6077,-5.6076,-5.6088,-5.6082,-5.6081,-5.6081,-5.608,-5.608,0,-5.5708,-5.5723,-5.5784,-5.5816,-5.5826,-5.5864,-5.5891,-5.5924,-5.5936,-5.5983,-5.5994,-5.6012,-5.6054,-5.6065,-5.6115,-5.6118,-5.618,-5.6177,-5.617,-5.6169,-5.6204,-5.6199,-5.6321,-5.6336,-5.624,-5.6241,-5.6242,0,-5.5759,-5.5796,-5.5833,-5.5858,-5.5877,-5.5917,-5.5942,-5.5951,-5.5978,-5.6016,-5.6043,-5.6085,-5.6119,-5.6186,-5.6203,-5.6241,-5.6237,-5.6277,-5.6242,-5.624,-5.6235,-5.6231,-5.6234,-5.6283,-5.6284,-5.6284,-5.6285,0,-5.5845,-5.5851,-5.5888,-5.5929,-5.5959,-5.5991,-5.6021,-5.6042,-5.6055,-5.6085,-5.6128,-5.6155,-5.6207,-5.6247,-5.6286,-5.6303,-5.6296,-5.6297,-5.6307,-5.6304,-5.6297,-5.6299,-5.6185,-5.6293,-5.6292,-5.6292,-5.6291,-5.6291,-5.5905,-5.5938,-5.597,-5.6011,-5.6036,-5.6065,-5.6097,-5.6114,-5.6151,-5.6194,-5.6198,-5.6245,-5.6274,-5.6326,-5.6345,-5.6381,-5.6369,-5.6384,-5.6387,-5.639,-5.6392,-5.6295,-5.6388,-5.6388,-5.6388,-5.6388,-5.6388,0,-5.5989,-5.601,-5.6049,-5.6092,-5.6125,-5.6119,-5.6152,-5.6179,-5.6221,-5.625,-5.6284,-5.6334,-5.6374,-5.6396,-5.6435,-5.646,-5.6458,-5.647,-5.6466,-5.647,-5.6402,-5.6388,-5.6471,-5.6471,-5.6471,-5.6471,-5.6471,-5.6471,-5.6037,-5.6092,-5.6102,-5.6169,-5.6189,-5.6235,-5.6255,-5.6281,-5.6305,-5.6361,-5.6395,-5.641,-5.6435,-5.6477,-5.6513,-5.6519,-5.6532,-5.6546,-5.6549,-5.6484,-5.6475,-5.6467,-5.6454,-5.6549,-5.6549,-5.6614,-5.6614,-5.6615]},{"header":{"parameterUnit":"m.s-1","parameterCategory":1,"la1":30.2991,"la2":30.254,"lo1":-89.0895,"lo2":-89.0444,"dy":0.0017,"dx":0.0017,"nx":28,"ny":28,"refTime":"2026-02-14T03:00:00:Z","depth":0,"parameterNumber":3,"parameterNumberName":"V-component_of_WINDS"},"data":[0,0,0,0,0,0,0,0,0,0,0,0,0,0,0,0,0,0,0,0,0,0,0,0,0,0,0,0,0,0,0,0,0,0,0,0,0,0,0,0,0,0,0,0,0,0,0,0,0,0,0,0,0,0,0,0,0,0,4.0922,4.0922,0,4.0949,4.0949,4.095,4.0921,4.092,4.0919,4.0918,4.0944,4.0946,4.0948,0,0,0,0,0,0,0,0,0,0,0,0,0,4.0846,4.0847,4.0922,4.0922,4.0922,4.0949,4.0949,4.095,4.0922,4.092,4.0919,4.0918,4.0944,4.0946,4.0948,0,0,0,0,0,0,0,0,0,0,0,0,0,4.0876,4.0848,4.0922,4.0912,4.0911,4.0949,4.0949,4.095,4.0922,4.092,4.0919,4.0917,4.0943,4.0946,4.0948,4.0997,0,0,4.0956,4.0957,0,0,0,0,0,0,0,0,4.0875,4.0879,4.0913,4.0912,4.0912,4.093,4.0932,4.0966,4.0922,4.0918,4.0918,4.0916,4.0941,4.0944,4.0952,4.0998,4.0999,4.0956,4.0958,4.0959,4.096,0,0,0,0,0,0,0,4.0873,4.0878,4.0932,4.0913,4.0913,4.0906,4.0909,4.0938,4.0938,4.0918,4.0916,4.092,4.094,4.095,4.0953,4.1,4.0956,4.0958,4.096,4.0961,4.1091,4.1093,0,0,0,0,0,0,4.0872,4.0876,4.0932,4.0933,4.0889,4.0909,4.0912,4.0926,4.0938,4.0938,4.0921,4.0918,4.0946,4.095,4.0953,4.1014,4.0959,4.0961,4.0963,4.1089,4.1092,4.1094,0,0,0,0,0,0,4.087,4.0877,4.093,4.0904,4.0911,4.0912,4.0928,4.0927,4.0937,4.094,4.094,4.0931,4.0945,4.095,4.0987,4.1015,4.0962,4.0965,4.1087,4.109,4.1093,4.1135,0,0,0,0,0,0,4.0868,4.0877,4.0895,4.0905,4.0912,4.0964,4.093,4.0929,4.0942,4.0938,4.0949,4.0949,4.0944,4.0984,4.099,4.1017,4.0967,4.1085,4.1088,4.1092,4.1131,4.1139,4.1145,0,0,0,0,0,4.0866,4.0904,4.0896,4.0902,4.0935,4.0965,4.097,4.0963,4.0944,4.0963,4.0965,4.0949,4.101,4.0988,4.0995,4.1023,4.1083,4.1087,4.1091,4.1128,4.1137,4.1145,0,0,0,0,0,0,4.0895,4.0905,4.0896,4.0939,4.0952,4.0961,4.0984,4.0973,4.0991,4.0987,4.0978,4.098,4.1021,4.1025,4.1,4.1073,4.1044,4.1049,4.1069,4.1078,4.1085,4.1084,4.0969,0,0,0,0,0,4.0907,4.0931,4.0938,4.0976,4.0983,4.0983,4.0995,4.099,4.1002,4.1008,4.1013,4.1025,4.1048,4.1063,4.1083,4.1131,4.1135,4.1154,4.1162,4.1167,4.1173,4.1203,4.1212,4.1108,4.1108,4.1108,0,0,4.0931,4.094,4.0955,4.0982,4.0991,4.1018,4.0987,4.1015,4.1035,4.1011,4.1049,4.1053,4.1067,4.1111,4.113,4.1116,4.1203,4.1173,4.1178,4.118,4.1208,4.1218,4.1227,4.1111,4.111,4.111,0,0,4.0989,4.0997,4.1031,4.1042,4.1057,4.1057,4.1065,4.1077,4.108,4.1117,4.1101,4.1124,4.1162,4.1174,4.1185,4.1251,4.1238,4.1258,4.1296,4.1325,4.1333,4.134,4.1367,4.1376,4.1263,4.1263,4.1263,0,4.1017,4.1056,4.1049,4.108,4.1094,4.1075,4.1111,4.1121,4.1142,4.1152,4.1135,4.1186,4.1193,4.1242,4.1259,4.1267,4.1277,4.1257,4.1332,4.134,4.1346,4.1372,4.1382,4.1266,4.1265,4.1265,4.1265,0,4.1092,4.1119,4.1145,4.1168,4.1184,4.1216,4.1216,4.1233,4.1227,4.1229,4.1269,4.1278,4.1302,4.1312,4.1305,4.1361,4.1352,4.1334,4.1304,4.1359,4.1383,4.1393,4.1269,4.1269,4.1268,4.1267,0,0,4.1168,4.119,4.1199,4.1212,4.1228,4.125,4.1282,4.1307,4.1324,4.1339,4.1368,4.1402,4.1387,4.14,4.1394,4.1419,4.1475,4.1398,4.1399,4.1415,4.1541,4.1556,4.1567,4.1466,4.1468,4.1469,4.1541,0,4.1229,4.1288,4.1284,4.1339,4.1366,4.1351,4.138,4.1394,4.1397,4.1421,4.1424,4.145,4.1427,4.1435,4.1459,4.1463,4.1501,4.1458,4.1495,4.1496,4.1494,4.1579,4.1595,4.1662,4.155,4.1551,4.1552,0,4.1308,4.1329,4.1388,4.1404,4.1416,4.1442,4.1466,4.1489,4.1505,4.1506,4.1522,4.1513,4.1548,4.1517,4.1565,4.1536,4.1551,4.1556,4.1559,4.1563,4.1529,4.1589,4.1683,4.1694,4.1567,4.1565,4.1564,0,4.1362,4.1405,4.1447,4.1457,4.1476,4.1496,4.1505,4.152,4.1536,4.1557,4.1568,4.1592,4.1606,4.1625,4.1624,4.1601,4.1675,4.1643,4.1678,4.1678,4.1696,4.1695,4.1796,4.1701,4.1701,4.1701,4.17,0,4.1432,4.147,4.1472,4.1498,4.154,4.1535,4.1577,4.1584,4.1598,4.1626,4.1612,4.1638,4.1634,4.166,4.1659,4.1702,4.1707,4.171,4.171,4.1713,4.1713,4.1724,4.172,4.1703,4.1703,4.1702,4.1702,0,4.1501,4.1503,4.1548,4.1564,4.1569,4.16,4.1613,4.1639,4.1642,4.1677,4.1685,4.169,4.1721,4.1721,4.1755,4.1755,4.1808,4.1801,4.1803,4.1803,4.184,4.1837,4.1953,4.1969,4.1861,4.1862,4.1863,0,4.1546,4.1575,4.1595,4.1614,4.1625,4.1653,4.1671,4.1669,4.1688,4.1711,4.1734,4.1763,4.1788,4.1838,4.1845,4.1872,4.1867,4.1905,4.1871,4.1874,4.1871,4.1871,4.1875,4.1913,4.1914,4.1915,4.1916,0,4.1629,4.163,4.1656,4.1684,4.1706,4.1727,4.1747,4.1762,4.1762,4.1785,4.1817,4.1836,4.1873,4.1904,4.1931,4.194,4.1929,4.1927,4.1937,4.1941,4.1943,4.1946,4.1825,4.1924,4.1923,4.1923,4.1922,4.1922,4.1689,4.1716,4.1735,4.1766,4.1781,4.1801,4.1826,4.1834,4.1861,4.1893,4.1889,4.1926,4.1944,4.198,4.1992,4.2021,4.2007,4.2021,4.2025,4.203,4.2035,4.1937,4.2025,4.2025,4.2025,4.2024,4.2024,0,4.1774,4.1786,4.1814,4.1844,4.1869,4.1857,4.1879,4.1901,4.1934,4.1953,4.1978,4.2017,4.2047,4.2057,4.2087,4.2109,4.2105,4.2117,4.2117,4.212,4.2044,4.2034,4.212,4.212,4.212,4.212,4.212,4.212,4.1821,4.1866,4.187,4.1923,4.1935,4.1973,4.1987,4.2006,4.2021,4.2066,4.2092,4.2098,4.2115,4.2146,4.2174,4.2176,4.2189,4.2205,4.2205,4.2134,4.2125,4.2116,4.2106,4.2207,4.2207,4.2279,4.228,4.228]}]]